This is the latest recevied weather packets stored in our database for station/object K0WOI. If no packets are shown the sender has not sent any weather packets the latest 1 day(s).
| Time | Temp. | Humidity | Pressure | Rain* | Wind** | Luminosity | Snow |
|---|---|---|---|---|---|---|---|
| 1778005108 | 15° C | 35% | 1011.2 hPa | 0 mm | 1.79 m/s, 251° | 515 W/m² | - |
| 1778004805 | 14.44° C | 36% | 1011 hPa | 0 mm | 1.34 m/s, 247° | 632 W/m² | - |
| 1778004502 | 13.89° C | 35% | 1011.3 hPa | 0 mm | 0 m/s | 231 W/m² | - |
| 1778004198 | 14.44° C | 37% | 1011.4 hPa | 0 mm | 1.34 m/s, 273° | 176 W/m² | - |
| 1778003895 | 13.89° C | 40% | 1011.4 hPa | 0 mm | 0.89 m/s, 259° | 188 W/m² | - |
| 1778003591 | 14.44° C | 37% | 1011.4 hPa | 0 mm | 2.24 m/s, 323° | 219 W/m² | - |
| 1778003288 | 13.89° C | 37% | 1011.5 hPa | 0 mm | 1.34 m/s, 330° | 290 W/m² | - |
| 1778002985 | 14.44° C | 36% | 1011.3 hPa | 0 mm | 0.45 m/s, 284° | 193 W/m² | - |
| 1778002681 | 15° C | 34% | 1011.5 hPa | 0 mm | 1.34 m/s, 314° | 168 W/m² | - |
| 1778002377 | 15° C | 38% | 1011.6 hPa | 0 mm | 0.89 m/s, 316° | 221 W/m² | - |
| 1778002074 | 14.44° C | 37% | 1011.5 hPa | 0 mm | 0.45 m/s, 348° | 179 W/m² | - |
| 1778001772 | 13.89° C | 37% | 1011.9 hPa | 0 mm | 1.34 m/s, 294° | 252 W/m² | - |
| 1778001467 | 13.33° C | 37% | 1011.7 hPa | 0 mm | 1.34 m/s, 312° | 241 W/m² | - |
| 1778001164 | 13.33° C | 38% | 1011.5 hPa | 0 mm | 1.79 m/s, 312° | 525 W/m² | - |
| 1778000860 | 13.33° C | 39% | 1011.8 hPa | 0 mm | 0 m/s | 752 W/m² | - |
| 1778000558 | 13.33° C | 41% | 1011.8 hPa | 0 mm | 2.24 m/s, 291° | 361 W/m² | - |
| 1778000252 | 12.78° C | 39% | 1011.6 hPa | 0 mm | 1.79 m/s, 234° | 257 W/m² | - |
| 1777999949 | 13.33° C | 38% | 1011.8 hPa | 0 mm | 1.79 m/s, 335° | 275 W/m² | - |
| 1777999644 | 12.78° C | 39% | 1011.8 hPa | 0 mm | 0.89 m/s, 330° | 315 W/m² | - |
| 1777999342 | 12.78° C | 43% | 1011.7 hPa | 0 mm | 0.45 m/s, 332° | 235 W/m² | - |
| 1777999040 | 12.78° C | 41% | 1011.8 hPa | 0 mm | 0.89 m/s, 283° | 257 W/m² | - |
| 1777998738 | 12.78° C | 40% | 1011.9 hPa | 0 mm | 0.45 m/s, 332° | 220 W/m² | - |
| 1777998435 | 12.78° C | 41% | 1011.9 hPa | 0 mm | 1.34 m/s, 311° | 253 W/m² | - |
| 1777998132 | 12.78° C | 39% | 1011.5 hPa | 0 mm | 1.34 m/s, 299° | 255 W/m² | - |
| 1777997829 | 12.78° C | 41% | 1011.8 hPa | 0 mm | 0.89 m/s, 320° | 240 W/m² | - |
* Rain latest hour (hover to see other rain measurements)
** Current wind speed in m/s (hover to see current wind gust speed)